CAPE
95 71 29 24 25 23 26 24 3 0 0 0 0 0 0 0 0 0 0 0 0 0 0 0 0 0 0 0 0 0 0 0 0 0 0 0 0 0 0 0 0 0 0 0 0 0 0 0 0 0 0 0 0 0
34 56 15 18 23 28 31 20 9 0 0 0 0 0 0 0 0 0 0 0 0 0 0 0 0 0 0 0 0 0 0 0 0 0 0 0 0 0 0 0 0 0 0 0 0 0 0 0 0 0 0 0 0 0
4 66 16 16 23 32 31 23 9 0 0 0 0 0 0 0 0 0 0 0 0 0 0 0 0 0 0 0 0 0 0 0 0 0 0 0 0 0 0 0 0 0 0 0 0 0 0 0 0 0 0 0 0 0
0 70 14 18 23 38 30 21 6 0 0 0 0 0 0 0 0 0 0 0 0 0 0 0 0 0 0 0 0 0 0 0 0 0 0 0 0 0 0 0 0 0 0 0 0 0 0 0 0 0 0 0 0 0
0 58 18 26 30 47 35 19 5 1 0 0 0 0 0 0 0 0 0 0 0 0 0 0 0 0 0 0 0 0 0 0 0 0 0 0 0 0 0 0 0 0 0 0 0 0 0 0 0 0 0 0 0 0
3 128 31 51 57 59 36 9 1 1 1 1 0 0 0 0 0 0 0 0 0 0 0 0 0 0 0 0 0 0 0 0 0 0 0 0 0 0 0 0 0 0 0 0 0 0 0 0 0 0 0 0 0 0
3 109 24 66 88 59 32 4 0 2 2 1 0 0 0 0 0 0 0 0 0 0 0 0 0 0 0 0 0 0 0 0 0 0 0 0 0 0 0 0 0 0 0 0 0 0 0 0 0 0 0 0 0 0
14 99 37 56 83 73 17 1 1 2 4 1 0 0 0 0 0 0 0 0 0 0 0 0 0 0 0 0 0 0 0 0 0 0 0 0 0 0 0 0 0 0 0 0 0 0 0 0 0 0 0 0 0 0
47 99 89 76 108 39 14 4 3 2 2 0 0 0 0 0 0 0 0 0 0 0 0 0 0 0 0 0 0 0 0 0 0 0 0 0 0 0 0 0 0 0 0 0 0 0 0 0 0 0 0 0 0 0
5 91 46 92 107 30 10 6 1 1 0 0 0 0 0 0 0 0 0 0 0 0 0 0 0 0 0 0 0 0 0 0 0 0 0 0 0 0 0 0 0 0 0 0 0 0 0 0 0 0 0 0 0 0
13 60 35 87 62 19 6 4 1 0 0 0 0 0 0 0 0 0 0 0 0 0 0 0 0 0 0 0 0 0 0 0 0 0 0 0 0 0 0 0 0 0 0 0 0 0 0 0 0 0 0 0 0 0
27 18 66 67 41 11 6 0 2 0 0 0 0 0 0 0 0 0 0 0 0 0 0 0 0 0 0 0 0 0 0 0 0 0 0 0 0 0 0 0 0 0 0 0 0 0 0 0 0 0 0 0 0 0
37 12 76 39 17 11 7 0 0 0 0 0 0 0 0 0 0 0 0 0 0 0 0 0 0 0 0 0 0 0 0 0 0 0 0 0 0 0 0 0 0 0 0 0 0 0 0 0 0 0 0 0 0 0
40 3 26 3 6 13 10 0 0 0 0 0 0 0 0 0 0 0 0 0 0 0 0 0 0 0 0 0 0 0 0 0 0 0 0 0 0 0 0 0 0 0 0 0 0 0 0 0 0 0 0 0 0 0
24 31 1 3 15 25 1 0 0 0 0 0 0 0 0 0 0 0 0 0 0 0 0 0 0 0 0 0 0 0 0 0 0 0 0 0 0 0 0 0 0 0 0 0 0 0 0 0 0 0 0 0 0 0
52 7 0 15 21 26 40 3 0 0 0 0 0 0 0 0 0 0 0 0 0 0 0 0 0 0 0 0 0 0 0 0 0 0 0 0 0 0 0 0 0 0 0 0 0 0 0 0 0 0 0 0 0 0
41 1 13 23 29 56 46 0 0 0 0 0 0 0 0 0 0 0 0 0 0 0 0 0 0 0 0 0 0 0 0 0 0 0 0 0 0 0 0 0 0 0 0 0 0 0 0 0 0 0 0 0 0 0
0 19 39 58 67 51 2 0 0 0 0 1 0 0 0 0 0 0 0 0 0 0 0 0 0 0 0 0 0 0 0 0 0 0 0 0 0 0 0 0 0 0 0 0 0 0 0 0 0 0 0 0 0 0
11 38 65 63 22 3 0 0 0 0 0 0 0 0 0 0 0 0 0 0 0 0 0 0 0 0 0 0 0 0 0 0 0 0 0 0 0 0 0 0 0 0 0 0 0 0 0 0 0 0 0 0 0 0
39 64 64 42 0 0 0 0 0 0 0 0 0 0 0 0 0 0 0 0 0 0 0 0 0 0 0 0 0 0 0 0 0 0 0 0 0 0 0 0 0 0 0 0 0 0 0 0 0 0 0 0 0 0
51 71 54 0 0 0 0 0 0 0 0 0 0 0 0 0 0 0 0 0 0 0 0 0 0 0 0 0 0 0 0 0 0 0 0 0 0 0 0 0 0 0 0 0 0 0 0 0 0 0 0 0 0 0
36 42 0 0 0 0 0 0 0 0 0 0 0 0 0 0 0 0 0 0 0 0 0 0 0 0 0 0 0 0 0 0 0 0 0 0 0 0 0 0 0 0 0 0 0 0 0 0 0 0 0 0 8 2
16 0 0 0 0 0 0 0 0 0 0 0 0 0 0 0 0 0 0 0 0 0 0 0 0 0 0 0 0 0 0 0 0 0 0 0 0 0 0 0 0 0 0 0 0 0 0 0 0 0 0 3 6 7
0 0 0 0 0 0 1 2 0 0 0 0 0 0 0 0 0 0 0 0 0 0 0 0 0 0 0 0 0 0 0 0 0 0 0 0 0 0 0 0 0 0 0 0 0 0 0 0 0 0 0 1 3 5
0 0 0 0 0 0 1 2 3 0 0 0 0 0 0 0 0 0 0 0 0 0 0 0 0 0 0 0 0 0 0 0 0 0 0 0 0 0 0 0 0 0 0 0 0 0 0 0 0 0 0 0 5 11
0 0 0 0 0 0 0 0 0 1 0 0 0 0 0 0 0 0 0 0 0 0 0 0 0 0 0 0 0 0 0 0 0 0 0 0 0 0 0 0 0 0 0 0 0 0 0 1 3 2 1 2 6 12
0 0 0 0 0 0 0 0 0 0 0 0 0 0 0 0 0 0 0 0 0 0 0 0 0 0 0 0 0 0 0 0 0 0 0 0 0 0 0 0 0 0 0 0 1 3 4 4 0 1 0 2 2 4
0 0 0 0 0 0 0 0 0 0 0 0 0 0 0 0 0 0 0 0 0 0 0 0 0 0 0 0 0 0 0 0 0 0 0 0 0 0 0 0 0 0 0 0 0 0 2 0 1 1 3 0 1 1
0 0 0 0 0 0 0 0 0 0 0 0 0 0 0 0 0 0 0 0 0 0 0 0 0 0 0 0 0 0 0 0 0 0 0 0 0 0 0 0 0 0 0 0 2 8 9 12 0 0 0 0 0 0
0 0 0 0 0 0 0 0 0 0 0 0 0 0 0 0 0 0 0 0 0 0 0 0 0 0 0 0 0 0 0 0 0 0 0 0 0 0 0 0 0 0 0 0 0 0 1 1 0 0 0 0 0 0
0 0 0 0 0 0 0 0 0 0 0 0 0 0 0 0 0 0 0 0 0 0 0 0 0 0 0 0 0 0 0 0 0 0 0 0 0 0 0 0 0 0 0 0 0 0 0 1 0 0 0 0 0 1
0 0 0 0 0 0 0 0 0 0 0 0 0 0 0 0 0 0 0 0 0 0 0 0 0 0 0 0 0 0 0 0 0 0 0 0 0 0 0 0 0 0 0 0 0 0 0 0 0 0 0 0 0 1
0 0 0 0 0 0 0 0 0 0 0 0 0 0 0 0 0 0 0 0 0 0 0 0 0 0 0 0 0 0 0 0 0 0 0 0 0 0 0 0 0 0 0 0 0 0 0 0 0 0 0 0 0 0
CIN
-0 -0 -0 -0 -0 -0 -0 -4 -1 -0 -0 -0 -0 -0 -0 -0 -0 -0 -0 -0 -0 -0 -0 -0 -0 -0 -0 -0 -0 -0 -0 -0 -0 -0 -0 -0 -0 -0 -0 -0 -0 -0 -0 -0 -0 -0 -0 -0 -0 -0 -0 -0 -0 -0
-0 -3 -18 -0 -0 -0 -0 -3 -3 -0 -0 -0 -0 -0 -0 -0 -0 -0 -0 -0 -0 -0 -0 -0 -0 -0 -0 -0 -0 -0 -0 -0 -0 -0 -0 -0 -0 -0 -0 -0 -0 -0 -0 -0 -0 -0 -0 -0 -0 -0 -0 -0 -0 -0
-0 -2 -41 -0 -0 -0 -0 -3 -3 -0 -0 -0 -0 -0 -0 -0 -0 -0 -0 -0 -0 -0 -0 -0 -0 -0 -0 -0 -0 -0 -0 -0 -0 -0 -0 -0 -0 -0 -0 -0 -0 -0 -0 -0 -0 -0 -0 -0 -0 -0 -0 -0 -0 -0
-0 -0 -2 -0 -0 -0 -0 -1 -2 -0 -0 -0 -0 -0 -0 -0 -0 -0 -0 -0 -0 -0 -0 -0 -0 -0 -0 -0 -0 -0 -0 -0 -0 -0 -0 -0 -0 -0 -0 -0 -0 -0 -0 -0 -0 -0 -0 -0 -0 -0 -0 -0 -0 -0
-0 -3 -21 -0 -0 -0 -0 -0 -3 -0 -0 -0 -0 -0 -0 -0 -0 -0 -0 -0 -0 -0 -0 -0 -0 -0 -0 -0 -0 -0 -0 -0 -0 -0 -0 -0 -0 -0 -0 -0 -0 -0 -0 -0 -0 -0 -0 -0 -0 -0 -0 -0 -0 -0
-2 -0 -4 -3 -0 -0 -1 -5 -5 -0 -0 -0 -0 -0 -0 -0 -0 -0 -0 -0 -0 -0 -0 -0 -0 -0 -0 -0 -0 -0 -0 -0 -0 -0 -0 -0 -0 -0 -0 -0 -0 -0 -0 -0 -0 -0 -0 -0 -0 -0 -0 -0 -0 -0
-10 -3 -1 -0 -0 -1 -0 -20 -0 -0 -0 -0 -0 -0 -0 -0 -0 -0 -0 -0 -0 -0 -0 -0 -0 -0 -0 -0 -0 -0 -0 -0 -0 -0 -0 -0 -0 -0 -0 -0 -0 -0 -0 -0 -0 -0 -0 -0 -0 -0 -0 -0 -0 -0
-16 -0 -7 -1 -0 -1 -2 -10 -0 -0 -0 -0 -0 -0 -0 -0 -0 -0 -0 -0 -0 -0 -0 -0 -0 -0 -0 -0 -0 -0 -0 -0 -0 -0 -0 -0 -0 -0 -0 -0 -0 -0 -0 -0 -0 -0 -0 -0 -0 -0 -0 -0 -0 -0
-1 -0 -0 -0 -0 -0 -8 -0 -0 -0 -0 -0 -0 -0 -0 -0 -0 -0 -0 -0 -0 -0 -0 -0 -0 -0 -0 -0 -0 -0 -0 -0 -0 -0 -0 -0 -0 -0 -0 -0 -0 -0 -0 -0 -0 -0 -0 -0 -0 -0 -0 -0 -0 -0
-7 -6 -1 -0 -0 -2 -27 -0 -0 -0 -0 -0 -0 -0 -0 -0 -0 -0 -0 -0 -0 -0 -0 -0 -0 -0 -0 -0 -0 -0 -0 -0 -0 -0 -0 -0 -0 -0 -0 -0 -0 -0 -0 -0 -0 -0 -0 -0 -0 -0 -0 -0 -0 -0
-9 -6 -3 -1 -1 -21 -0 -0 -0 -0 -0 -0 -0 -0 -0 -0 -0 -0 -0 -0 -0 -0 -0 -0 -0 -0 -0 -0 -0 -0 -0 -0 -0 -0 -0 -0 -0 -0 -0 -0 -0 -0 -0 -0 -0 -0 -0 -0 -0 -0 -0 -0 -0 -0
-15 -0 -0 -0 -7 -39 -0 -0 -0 -0 -0 -0 -0 -0 -0 -0 -0 -0 -0 -0 -0 -0 -0 -0 -0 -0 -0 -0 -0 -0 -0 -0 -0 -0 -0 -0 -0 -0 -0 -0 -0 -0 -0 -0 -0 -0 -0 -0 -0 -0 -0 -0 -0 -0
-1 -0 -1 -0 -5 -0 -0 -0 -0 -0 -0 -0 -0 -0 -0 -0 -0 -0 -0 -0 -0 -0 -0 -0 -0 -0 -0 -0 -0 -0 -0 -0 -0 -0 -0 -0 -0 -0 -0 -0 -0 -0 -0 -0 -0 -0 -0 -0 -0 -0 -0 -0 -0 -0
-2 -12 -1 -23 -15 -0 -0 -0 -0 -0 -0 -0 -0 -0 -0 -0 -0 -0 -0 -0 -0 -0 -0 -0 -0 -0 -0 -0 -0 -0 -0 -0 -0 -0 -0 -0 -0 -0 -0 -0 -0 -0 -0 -0 -0 -0 -0 -0 -0 -0 -0 -0 -0 -0
-2 -0 -0 -0 -0 -0 -0 -0 -0 -0 -0 -0 -0 -0 -0 -0 -0 -0 -0 -0 -0 -0 -0 -0 -0 -0 -0 -0 -0 -0 -0 -0 -0 -0 -0 -0 -0 -0 -0 -0 -0 -0 -0 -0 -0 -0 -0 -0 -0 -0 -0 -0 -0 -0
-1 -0 -0 -0 -0 -0 -9 -15 -0 -0 -0 -0 -0 -0 -0 -0 -0 -0 -0 -0 -0 -0 -0 -0 -0 -0 -0 -0 -0 -0 -0 -0 -0 -0 -0 -0 -0 -0 -0 -0 -0 -0 -0 -0 -0 -0 -0 -0 -0 -0 -0 -0 -0 -0
-0 -0 -0 -0 -0 -1 -7 -0 -0 -0 -0 -0 -0 -0 -0 -0 -0 -0 -0 -0 -0 -0 -0 -0 -0 -0 -0 -0 -0 -0 -0 -0 -0 -0 -0 -0 -0 -0 -0 -0 -0 -0 -0 -0 -0 -0 -0 -0 -0 -0 -0 -0 -0 -0
-0 -0 -0 -0 -0 -2 -30 -0 -0 -0 -0 -0 -0 -0 -0 -0 -0 -0 -0 -0 -0 -0 -0 -0 -0 -0 -0 -0 -0 -0 -0 -0 -0 -0 -0 -0 -0 -0 -0 -0 -0 -0 -0 -0 -0 -0 -0 -0 -0 -0 -0 -0 -0 -0
-0 -0 -0 -0 -2 -5 -0 -0 -0 -0 -0 -0 -0 -0 -0 -0 -0 -0 -0 -0 -0 -0 -0 -0 -0 -0 -0 -0 -0 -0 -0 -0 -0 -0 -0 -0 -0 -0 -0 -0 -0 -0 -0 -0 -0 -0 -0 -0 -0 -0 -0 -0 -0 -0
-0 -0 -0 -2 -3 -0 -0 -0 -0 -0 -0 -0 -0 -0 -0 -0 -0 -0 -0 -0 -0 -0 -0 -0 -0 -0 -0 -0 -0 -0 -0 -0 -0 -0 -0 -0 -0 -0 -0 -0 -0 -0 -0 -0 -0 -0 -0 -0 -0 -0 -0 -0 -0 -0
-0 -0 -4 -0 -0 -0 -0 -0 -0 -0 -0 -0 -0 -0 -0 -0 -0 -0 -0 -0 -0 -0 -0 -0 -0 -0 -0 -0 -0 -0 -0 -0 -0 -0 -0 -0 -0 -0 -0 -0 -0 -0 -0 -0 -0 -0 -0 -0 -0 -0 -0 -0 -0 -0
-0 -0 -0 -0 -0 -0 -0 -0 -0 -0 -0 -0 -0 -0 -0 -0 -0 -0 -0 -0 -0 -0 -0 -0 -0 -0 -0 -0 -0 -0 -0 -0 -0 -0 -0 -0 -0 -0 -0 -0 -0 -0 -0 -0 -0 -0 -0 -0 -0 -0 -0 -5 -12 -5
-0 -0 -0 -0 -0 -0 -0 -0 -0 -0 -0 -0 -0 -0 -0 -0 -0 -0 -0 -0 -0 -0 -0 -0 -0 -0 -0 -0 -0 -0 -0 -0 -0 -0 -0 -0 -0 -0 -0 -0 -0 -0 -0 -0 -0 -0 -0 -0 -0 -5 -14 -9 -6 -6
-0 -0 -0 -0 -0 -0 -0 -0 -0 -0 -0 -0 -0 -0 -0 -0 -0 -0 -0 -0 -0 -0 -0 -0 -0 -0 -0 -0 -0 -0 -0 -0 -0 -0 -0 -0 -0 -0 -0 -0 -0 -0 -0 -0 -0 -0 -0 -0 -0 -0 -4 -13 -7 -2
-0 -0 -0 -0 -0 -0 -0 -0 -0 -0 -0 -0 -0 -0 -0 -0 -0 -0 -0 -0 -0 -0 -0 -0 -0 -0 -0 -0 -0 -0 -0 -0 -0 -0 -0 -0 -0 -0 -0 -0 -0 -0 -0 -0 -0 -0 -0 -0 -1 -0 -0 -3 -0 -0
-0 -0 -0 -0 -0 -0 -0 -0 -0 -0 -0 -0 -0 -0 -0 -0 -0 -0 -0 -0 -0 -0 -0 -0 -0 -0 -0 -0 -0 -0 -0 -0 -0 -0 -0 -0 -0 -0 -0 -0 -0 -0 -0 -0 -0 -0 -2 -6 -9 -10 -6 -4 -0 -0
-0 -0 -0 -0 -0 -0 -0 -0 -0 -0 -0 -0 -0 -0 -0 -0 -0 -0 -0 -0 -0 -0 -0 -0 -0 -0 -0 -0 -0 -0 -0 -0 -0 -0 -0 -0 -0 -0 -0 -0 -0 -0 -0 -0 -18 -14 -10 -11 -5 -11 -2 -6 -0 -0
-0 -0 -0 -0 -0 -0 -0 -0 -0 -0 -0 -0 -0 -0 -0 -0 -0 -0 -0 -0 -0 -0 -0 -0 -0 -0 -0 -0 -0 -0 -0 -0 -0 -0 -0 -0 -0 -0 -0 -0 -0 -0 -0 -0 -0 -1 -17 -13 -10 -13 -10 -9 -0 -0
-0 -0 -0 -0 -0 -0 -0 -0 -0 -0 -0 -0 -0 -0 -0 -0 -0 -0 -0 -0 -0 -0 -0 -0 -0 -0 -0 -0 -0 -0 -0 -0 -0 -0 -0 -0 -0 -0 -0 -0 -0 -0 -0 -0 -5 -10 -4 -1 -9 -13 -7 -0 -0 -0
-0 -0 -0 -0 -0 -0 -0 -0 -0 -0 -0 -0 -0 -0 -0 -0 -0 -0 -0 -0 -0 -0 -0 -0 -0 -0 -0 -0 -0 -0 -0 -0 -0 -0 -0 -0 -0 -0 -0 -0 -0 -0 -0 -0 -0 -5 -5 -13 -0 -0 -0 -0 -0 -0
-0 -0 -0 -0 -0 -0 -0 -0 -0 -0 -0 -0 -0 -0 -0 -0 -0 -0 -0 -0 -0 -0 -0 -0 -0 -0 -0 -0 -0 -0 -0 -0 -0 -0 -0 -0 -0 -0 -0 -0 -0 -0 -0 -0 -0 -0 -0 -0 -0 -0 -0 -0 -0 -0
-0 -0 -0 -0 -0 -0 -0 -0 -0 -0 -0 -0 -0 -0 -0 -0 -0 -0 -0 -0 -0 -0 -0 -0 -0 -0 -0 -0 -0 -0 -0 -0 -0 -0 -0 -0 -0 -0 -0 -0 -0 -0 -0 -0 -0 -6 -0 -0 -0 -0 -0 -0 -0 -0
-0 -0 -0 -0 -0 -0 -0 -0 -0 -0 -0 -0 -0 -0 -0 -0 -0 -0 -0 -0 -0 -0 -0 -0 -0 -0 -0 -0 -0 -0 -0 -0 -0 -0 -0 -0 -0 -0 -0 -0 -0 -0 -0 -0 -0 -0 -0 -0 -0 -0 -0 -0 -2 -0
Wind_Speed
29 31 31 29 27 24 21 20 17 14 11 9 7 4 3 2 10 4 1 1 4 4 2 3 4 4 3 3 6 5 5 2 3 4 4 4 3 4 2 4 6 7 7 4 3 2 8 4 5 6 5 3 2 0
25 33 32 31 28 25 23 21 18 16 13 10 7 5 4 4 7 4 3 1 2 7 3 1 3 2 3 2 6 1 3 4 6 6 1 3 1 2 3 3 2 3 6 7 10 8 4 0 4 3 4 4 1 1
23 34 33 32 29 27 25 22 20 16 13 9 6 5 4 4 7 6 3 3 4 5 4 4 3 4 5 4 2 7 2 5 3 4 5 3 3 5 4 6 2 4 4 4 3 3 4 5 2 4 2 4 4 2
20 31 32 32 30 28 26 23 21 18 15 11 7 4 3 6 9 7 4 0 4 4 6 2 2 4 6 6 3 2 7 5 6 3 3 4 3 4 4 3 5 5 5 5 5 3 4 2 3 4 3 1 2 5
21 25 32 30 31 29 26 24 21 19 17 13 8 3 5 10 14 9 4 2 1 6 5 2 2 5 6 3 7 6 6 5 3 3 3 3 2 4 1 3 4 5 7 6 6 5 5 4 5 5 5 2 1 4
18 29 33 31 30 29 27 25 22 19 17 14 10 8 10 6 3 4 4 2 3 3 7 3 3 5 6 6 9 8 4 4 3 4 3 2 2 4 4 4 6 4 3 4 3 4 4 7 6 4 2 1 2 3
18 29 33 30 31 31 28 26 23 21 19 16 11 8 7 8 5 3 5 2 1 2 6 4 3 4 3 4 4 4 4 3 3 2 1 2 1 4 3 3 4 1 2 3 5 7 3 4 5 3 2 3 3 4
17 29 31 34 32 31 28 27 26 22 20 18 13 10 14 16 10 4 4 5 3 6 5 5 1 2 2 2 2 3 3 3 5 2 2 1 2 2 3 6 4 4 1 4 6 2 5 4 4 3 4 2 5 7
19 29 36 33 31 32 30 29 28 25 22 20 21 13 5 5 3 2 1 5 4 5 6 4 7 5 1 2 2 3 2 3 2 2 1 3 1 5 6 5 4 5 6 6 4 2 3 4 6 5 4 6 5 8
14 26 35 35 33 33 32 31 30 28 26 21 5 4 3 2 1 2 7 5 6 5 4 4 1 3 4 1 2 3 3 1 1 2 1 2 5 6 6 6 5 5 4 7 6 4 5 5 7 7 8 7 7 8
17 30 38 37 35 34 35 33 32 31 18 3 4 3 1 1 4 4 3 4 1 3 1 3 3 5 1 4 4 2 3 0 2 3 4 2 5 4 3 4 6 8 8 9 6 5 7 7 7 7 7 7 7 8
18 25 35 36 36 38 37 36 35 10 6 8 9 7 3 3 4 6 1 2 2 7 3 5 4 4 2 3 5 1 4 3 3 2 3 4 6 4 4 5 4 4 6 7 6 8 7 6 8 7 7 8 7 7
19 16 35 39 37 39 38 38 25 22 21 4 6 5 3 2 5 9 9 4 3 6 5 5 3 4 3 4 4 4 4 4 2 2 5 6 3 4 6 3 1 4 5 5 5 6 7 7 7 5 7 7 7 7
25 12 38 41 38 39 38 33 30 17 4 4 7 5 6 4 6 7 6 6 4 5 9 5 4 4 2 4 3 5 3 3 2 2 7 4 5 3 1 1 2 2 3 2 4 5 6 6 7 8 7 6 6 7
19 21 43 42 39 40 36 31 15 4 4 4 5 7 7 3 3 4 4 5 2 8 6 5 4 4 3 5 1 4 4 5 6 6 4 4 4 4 2 1 0 2 3 4 2 4 6 7 7 7 8 7 6 6
14 36 22 46 45 41 32 19 5 3 4 3 3 5 2 5 3 3 3 6 2 6 4 4 4 5 1 5 4 6 7 8 5 5 4 4 4 3 2 3 5 4 4 5 6 5 6 7 7 7 7 7 7 6
34 4 45 47 46 38 27 8 4 5 3 3 0 1 2 4 6 4 5 4 8 5 3 4 6 7 3 4 2 5 7 5 4 3 3 6 5 4 4 5 4 5 6 6 4 6 5 6 5 5 7 7 6 6
11 32 50 47 33 27 5 4 5 4 3 2 2 4 3 3 8 6 4 9 5 3 4 5 7 4 6 7 5 5 5 3 2 3 3 4 5 5 5 4 5 6 6 7 7 6 4 5 5 5 6 5 6 5
31 30 47 44 23 12 7 2 3 5 2 2 1 2 3 4 3 5 8 4 3 4 6 3 5 4 5 5 4 4 3 3 3 3 3 3 3 5 7 5 5 6 6 5 3 3 4 4 3 3 2 2 2 4
49 47 43 30 9 6 8 3 2 4 4 4 3 3 4 4 3 4 9 3 4 4 2 3 5 5 5 4 4 4 4 4 3 1 3 5 5 6 6 5 5 5 4 5 4 4 1 2 2 2 2 2 3 5
41 30 27 8 6 6 5 4 3 3 4 3 3 3 4 3 4 3 3 2 3 4 4 4 4 4 4 2 3 3 4 5 5 6 6 4 4 3 4 5 3 2 2 3 4 4 1 3 3 3 4 3 3 4
21 30 8 4 5 4 5 2 5 4 3 4 4 4 4 3 3 3 3 2 4 5 5 4 4 4 4 5 5 6 5 6 6 4 7 5 3 3 4 4 2 3 3 3 3 3 2 2 3 4 4 4 5 6
27 12 5 5 6 5 4 2 4 1 6 3 3 4 2 3 2 2 2 4 4 3 5 5 5 6 7 4 4 4 6 6 4 5 4 4 4 4 4 4 3 3 2 2 1 0 2 4 4 3 3 6 5 5
11 7 5 4 5 5 4 3 2 4 4 3 4 5 3 3 2 2 3 4 3 3 5 7 5 4 2 1 3 4 4 5 4 3 4 4 4 3 3 2 2 2 2 1 1 1 2 3 6 5 5 5 6 7
10 2 5 6 3 5 5 4 4 4 4 4 4 4 2 3 3 3 3 4 3 4 4 4 4 5 4 3 3 4 4 5 5 5 3 4 3 3 2 2 1 0 2 3 1 1 1 2 3 6 5 5 9 9
8 3 4 5 4 5 6 6 5 5 5 4 3 4 2 3 3 5 4 4 3 3 4 6 6 4 4 5 4 3 3 3 4 3 1 4 4 4 4 4 3 2 2 3 1 2 3 2 3 5 5 8 13 10
5 4 2 0 5 7 6 4 3 5 5 5 4 4 4 5 6 4 2 3 3 3 4 5 6 6 5 3 3 2 3 4 3 2 3 3 3 3 4 4 4 3 3 4 1 0 2 2 3 4 5 6 6 6
4 3 7 4 5 3 7 5 4 4 4 4 5 5 10 9 6 4 5 2 4 3 3 3 3 4 4 3 4 5 4 4 5 4 4 4 3 1 3 3 4 7 2 1 1 2 1 2 3 4 4 6 7 6
4 2 5 8 6 5 3 5 5 4 5 5 5 4 5 4 3 3 1 2 3 4 4 4 1 3 4 4 4 3 4 5 7 6 6 3 2 1 2 3 4 2 3 2 5 5 5 4 2 3 4 5 5 6
3 2 5 4 4 3 2 3 4 3 1 3 4 3 2 1 2 2 4 4 4 4 4 3 4 5 4 5 4 3 3 4 4 4 5 5 5 3 4 4 4 3 1 3 2 3 5 4 3 3 4 4 5 5
3 3 5 5 4 3 2 2 3 3 2 2 3 4 3 1 2 2 4 3 3 3 4 2 1 3 5 5 5 5 4 4 5 6 5 5 5 4 4 4 3 3 3 3 2 2 2 2 3 3 4 5 6 6
4 4 5 5 3 2 1 3 2 3 2 3 2 3 3 4 1 4 1 4 4 4 8 5 5 5 5 3 4 3 4 6 6 5 8 6 5 4 4 2 1 2 4 4 2 1 2 3 2 3 4 5 6 5
3 4 4 4 3 3 2 4 3 2 3 2 2 1 3 5 7 4 2 0 3 1 1 3 4 4 6 7 6 5 6 5 10 13 15 12 9 7 4 3 2 3 5 4 3 2 3 3 3 4 5 5 5 5
Wind_Direction
234 208 207 210 210 204 201 194 199 202 209 222 240 258 270 195 161 104 154 125 116 106 342 16 11 129 101 124 141 181 75 349 55 83 125 196 143 221 159 180 185 175 145 183 88 81 288 177 80 173 199 201 142 317
257 203 200 203 204 199 197 192 189 194 199 205 229 253 265 227 182 113 102 351 85 82 146 18 81 45 12 4 124 60 147 155 172 96 156 105 140 91 145 256 56 273 184 183 178 214 246 310 136 155 150 143 154 14
292 203 196 197 198 196 196 188 183 185 184 190 208 251 268 278 166 114 125 142 68 97 19 49 16 335 26 10 228 120 285 161 167 168 155 157 168 128 170 235 209 224 174 187 82 249 193 142 109 101 88 72 31 325
278 205 192 196 195 193 192 183 179 182 177 186 195 241 250 151 131 104 107 150 89 109 113 265 338 22 329 353 26 105 137 77 95 71 101 133 154 164 196 192 187 204 135 173 256 276 68 350 133 114 77 97 255 276
268 231 188 194 192 190 186 177 175 176 170 175 178 173 130 127 114 91 94 55 126 125 147 165 333 350 348 16 54 57 97 100 89 65 77 221 154 111 7 44 259 187 189 171 229 206 153 186 163 165 167 175 341 6
272 215 185 189 191 185 178 169 168 166 163 163 164 144 129 126 103 70 50 348 3 100 101 105 309 11 2 30 52 45 39 71 84 131 202 257 312 100 121 204 250 250 231 178 226 155 139 144 164 175 165 80 319 292
266 211 184 185 187 183 173 162 159 158 157 153 152 141 113 96 68 88 165 224 328 80 90 69 17 330 330 26 27 24 29 56 89 107 144 152 22 88 105 202 231 263 208 151 153 120 88 170 194 184 223 257 281 278
257 192 182 188 182 176 166 157 152 152 149 146 142 120 99 93 105 39 351 35 74 88 67 112 308 16 342 61 53 0 40 23 19 114 28 85 22 67 258 237 237 246 258 157 189 224 172 145 148 223 226 248 297 291
241 207 182 185 178 165 160 153 147 145 143 135 127 122 70 39 73 197 319 58 60 101 121 95 137 202 18 64 70 37 40 46 299 79 10 74 330 228 228 202 195 186 188 196 183 130 125 177 218 251 265 281 256 273
261 221 180 189 173 159 155 150 144 139 137 129 89 70 73 282 196 63 12 29 23 351 37 93 178 127 106 56 39 76 15 89 96 260 38 96 258 263 248 226 238 231 224 154 142 196 211 223 226 247 240 252 248 262
244 194 176 179 160 155 152 147 141 137 129 102 116 91 167 339 62 38 77 92 345 30 42 155 159 132 287 117 135 111 164 330 91 254 136 282 274 247 266 285 246 238 210 206 215 209 208 213 227 240 266 263 264 266
220 200 176 161 155 153 148 144 145 138 144 152 121 99 92 58 55 94 75 58 150 196 176 135 177 140 144 114 101 357 112 51 198 139 81 252 250 252 283 300 326 184 208 219 221 250 278 278 261 254 257 260 261 260
210 226 172 157 156 151 150 145 145 121 121 89 68 85 124 299 66 168 178 236 184 178 178 156 125 123 90 66 71 90 90 201 102 69 230 230 258 272 263 232 165 160 166 187 215 214 240 260 279 244 269 269 271 282
205 231 167 150 155 150 147 141 141 142 101 105 139 138 183 190 233 182 170 148 174 128 131 110 92 111 118 73 128 101 215 86 58 232 234 238 223 208 332 8 65 37 8 322 278 270 273 282 285 288 272 272 284 277
198 196 148 145 149 142 144 140 125 56 80 126 114 192 194 165 72 106 120 102 93 129 116 96 64 88 38 90 76 96 160 227 213 227 223 212 202 175 217 348 15 320 308 301 322 302 286 285 283 282 280 277 272 269
219 160 144 147 143 142 143 123 74 69 55 86 70 97 93 81 84 108 106 116 147 128 94 67 109 73 112 134 106 204 156 219 231 213 211 152 175 191 225 243 243 259 253 255 270 263 269 278 278 280 292 291 287 273
169 95 144 141 140 135 129 98 84 59 95 75 223 126 116 86 126 132 140 145 154 111 124 117 102 185 107 74 227 193 209 216 204 207 178 173 181 208 236 248 229 228 244 254 261 277 270 275 296 305 298 302 310 288
124 137 136 134 133 120 67 62 85 101 141 168 139 174 117 87 119 126 132 148 114 121 146 158 130 145 172 171 220 224 221 230 192 172 178 200 218 235 220 255 273 270 275 269 253 257 252 292 301 279 296 304 309 316
139 138 137 138 136 116 110 96 106 112 131 146 116 76 79 99 53 106 129 107 107 118 106 50 103 175 201 206 199 204 199 177 168 196 227 245 213 259 275 267 259 265 261 258 269 268 263 265 238 265 277 333 296 302
136 139 142 139 122 88 91 95 109 116 152 157 103 96 86 93 103 97 142 92 111 112 94 161 197 196 180 208 182 171 166 164 138 197 277 266 253 263 269 263 265 269 286 297 288 278 287 316 191 198 221 265 310 304
131 143 130 100 54 61 93 129 92 128 134 94 119 92 77 69 92 120 139 156 95 202 218 185 177 199 171 176 155 148 173 163 192 193 218 262 265 238 276 277 267 271 256 282 272 288 348 238 250 282 279 280 286 269
126 128 100 68 84 75 80 36 113 125 80 123 97 84 95 100 130 142 132 127 216 219 175 173 188 168 186 207 210 195 211 211 228 236 249 239 264 279 275 262 281 273 262 243 246 268 287 263 265 278 283 283 292 304
121 115 69 77 88 68 80 43 91 39 107 116 86 92 92 122 158 184 155 214 245 202 180 181 177 184 202 203 178 207 207 209 231 231 249 235 230 239 252 260 220 221 246 289 239 305 301 309 298 299 311 316 308 302
77 59 75 83 80 101 116 89 92 88 85 93 110 118 146 132 175 80 221 235 230 189 180 196 157 137 87 149 211 229 211 190 224 250 218 212 242 256 188 169 163 168 155 128 103 53 355 344 355 358 346 334 324 312
89 52 91 82 93 109 108 110 100 102 117 158 125 114 136 145 132 180 229 257 223 218 198 161 159 177 174 207 243 246 199 184 192 222 236 176 135 96 93 102 117 127 133 125 220 221 26 11 342 329 315 319 315 309
82 98 110 143 156 122 151 127 150 134 123 121 108 125 129 115 121 227 229 219 218 204 166 176 175 168 214 200 204 212 237 170 134 142 228 169 170 163 169 162 181 234 221 208 203 10 315 298 315 318 315 314 320 324
102 117 129 7 114 114 98 74 92 91 87 132 158 152 129 144 212 242 265 212 194 221 185 170 167 177 183 174 180 168 137 127 123 155 128 142 155 167 146 164 179 193 209 213 132 334 296 323 314 309 309 309 315 313
96 140 130 147 97 73 101 84 107 141 157 173 128 164 165 179 206 214 203 194 177 139 107 102 124 138 138 141 134 124 102 106 99 92 77 51 39 128 128 128 127 125 116 48 34 2 334 311 303 306 321 322 314 312
83 88 87 72 68 68 106 145 168 175 149 150 135 159 189 205 202 168 187 161 121 119 113 118 60 113 89 86 104 128 135 148 154 167 188 169 176 261 185 155 133 151 163 73 18 18 340 330 337 334 322 316 312 308
88 48 89 86 98 112 148 145 130 127 108 135 124 100 67 323 253 111 116 128 140 181 182 164 163 159 162 154 157 184 209 185 193 161 176 180 200 181 164 162 162 193 169 87 41 2 354 358 340 346 353 348 345 339
115 102 75 58 71 37 62 121 83 78 62 73 39 100 129 354 341 208 196 172 132 120 137 148 170 182 159 169 168 173 212 224 198 177 146 119 118 129 149 156 167 172 127 99 55 19 349 341 337 346 353 356 350 1
42 62 106 98 92 345 40 56 58 69 46 59 50 80 55 57 313 282 179 132 150 192 224 195 178 215 205 175 169 175 171 152 159 162 139 122 126 142 132 133 197 204 136 127 103 50 27 357 354 9 352 350 350 352
68 55 71 96 71 67 15 83 52 69 39 60 332 158 183 174 216 246 37 332 198 222 233 189 186 181 172 164 170 169 165 141 147 146 133 134 153 170 159 179 212 177 145 130 123 98 52 31 23 17 4 345 349 5